COMSATBW-2

Last updated on Jan. 21, 2021, 6:16 a.m. UTC

1 36582U 10021B   21020.92271782  .00000098  00000-0  00000-0 0  9998
2 36582   0.0458 207.5231 0001782 102.9804 155.3974  1.00279323 39176
UTC
Height (km)
Latitude
Longitude
Inclination
Orbital Period
UTC large
Height (km)
Speed (km/s)
/
Latitude / Longitude
Inclination (degrees)
Orbital Period (minutes)
Azimuth
Elevation
Range (km)
Doppler Factor
iOS Compass Heading
iOS Angle

Next 30 passes for location: Hong Kong

Rise time Rise Azimuth (degrees) Set time Set Azimuth (degrees) Duration Max altitude (degrees)

No matching passes for this satellites